Regional Weather Roundup
Issued by NWS

Home | Current Version | Previous Version | Graphics & Text | Print | Product List | Glossary On
Versions: 1 2 3 4 5 6 7 8 9 10 11 12 13 14 15 16 17 18 19 20 21 22 23 24 25 26 27 28 29 30 31 32 33 34 35 36 37 38 39 40 41 42 43 44 45 46 47 48 49 50
000
ASUS45 KBOU 090107
RWRCO

WEATHER ROUNDUP FOR COLORADO
NATIONAL WEATHER SERVICE DENVER/BOULDER CO
600 PM MST MON FEB 08 2016

NOTE: "FAIR" INDICATES FEW OR NO CLOUDS BELOW 12000 FEET WITH NO
SIGNIFICANT WEATHER AND/OR OBSTRUCTIONS TO VISIBILITY.

COZ001>005-013-030-031-090200-
...NORTHWEST COLORADO...

CITY           SKY/WX    TMP DP  RH WIND       PRES   REMARKS
CRAIG          CLOUDY    14   9  80 CALM      30.53R
HAYDEN         CLOUDY    18  10  73 SE5       30.52S WCI  11
MEEKER         CLOUDY    20  14  77 NE3       30.50S
MOUNT WERNER   NOT AVBL
STEAMBOAT SPGS CLOUDY    23  16  75 CALM      30.52R
WALDEN         CLOUDY    23  14  68 NE3       30.46S
$$

COZ006>008-011-090200-
...WEST CENTRAL VALLEYS...

CITY           SKY/WX    TMP DP  RH WIND       PRES   REMARKS
GRAND JUNCTION CLEAR     29  23  78 NE3       30.50F
MONTROSE       CLOUDY    34  21  59 E6        30.52R WCI  29
EAGLE          CLEAR     34  23  64 CALM      30.50S
RIFLE          CLOUDY    32  19  58 S3        30.50S
DELTA          CLOUDY    35  25  66 CALM      30.51S
NUCLA          CLOUDY    45  23  42 CALM      30.49F
$$

COZ017>023-064>068-090200-
...SOUTHWEST COLORADO...

CITY           SKY/WX    TMP DP  RH WIND       PRES   REMARKS
DURANGO        CLOUDY    34  21  59 E3        30.40S
CORTEZ         CLOUDY    42  25  50 SE7       30.41R
PAGOSA SPRINGS CLOUDY    33  23  68 CALM      30.42R
TELLURIDE      CLOUDY    36  18  48 W13       30.50S
WOLF CREEK PAS CLOUDY    28   5  37 N21G31    30.54S WCI  15
$$

COZ009-010-012-014-032>034-037-058>063-090200-
...CENTRAL COLORADO...

CITY           SKY/WX    TMP DP  RH WIND       PRES   REMARKS
ASPEN          CLOUDY    27  18  69 S6        30.48R WCI  20
BUENA VISTA    CLOUDY    38  21  49 NW18      30.40S
COPPER MTN     CLOUDY    25  18  74 W10       30.51S WCI  15
BERTHOUD PASS  FAIR      16   5  62 NW31G37   30.45S WCI  -5
COTTONWOOD PAS CLOUDY    37  10  32 W12       30.44S
GUNNISON       CLOUDY    16   3  57 CALM      30.52R
KREMMLING      CLOUDY    21  14  73 CALM      30.51R
LEADVILLE      CLOUDY    27  14  58 N9        30.45R WCI  18
MONARCH PASS   CLOUDY    25  12  58 MISG      30.60F
SALIDA         NOT AVBL
SUNLIGHT       CLOUDY    27  19  74 SW3         N/A
WILKERSON PASS CLOUDY    28   7  40 NW10G23   30.47S WCI  19
$$

COZ069>075-090200-
...SAN LUIS VALLEY/SANGRE DE CRISTO MOUNTAINS...

CITY           SKY/WX    TMP DP  RH WIND       PRES   REMARKS
ALAMOSA        CLOUDY    35  21  56 CALM      30.39R
LA VETA PASS   NOT AVBL
SAGUACHE       CLOUDY    36  21  55 NE13      30.42R
$$

COZ035-036-038>040-090200-
...NORTHERN COLORADO FRONT RANGE...

CITY           SKY/WX    TMP DP  RH WIND       PRES   REMARKS
DENVER INTL AP MOCLDY    34  24  67 SE8       30.32S WCI  27
DMNS CITY PARK   N/A     42  21  44 E8        30.33R
AURORA         MOCLDY    33  24  68 SE10      30.34R WCI  25
FRONT RANGE AP MOCLDY    34  25  69 SE5       30.33S WCI  30
ERIE MUNI ARPT CLEAR     37  26  64 CALM      30.32S
BOULDER MUN AP CLEAR     39  27  60 CALM      30.31S
CENTENNIAL     CLOUDY    39  23  52 SE8       30.33R
BROOMFIELD     MOCLDY    43  23  45 S5        30.33R
FORT COLLINS   CLOUDY    36  25  64 S8        30.33S
LONGMONT       CLOUDY    37  26  66 CALM      30.34S
$$

COZ041-046-047-076>085-087-088-090200-
...PIKES PEAK/PALMER DIVIDE AND SOUTHERN FOOTHILLS...

CITY           SKY/WX    TMP DP  RH WIND       PRES   REMARKS
COLO. SPRINGS  CLOUDY    32  20  61 E3        30.37S
A. F. ACADEMY  CLOUDY    33  22  65 S2        30.36R
SCHRIEVER AFB  NOT AVBL
ELLICOTT       NOT AVBL
FALCON         CLOUDY    28  20  72 W8        30.37S WCI  20
FORT CARSON    CLOUDY    31  22  71 S1        30.35F
LIMON          CLOUDY    31  23  72 W9        30.32R WCI  23
MONUMENT HILL  CLOUDY    28  18  64 SW5       30.36S WCI  23
TRINIDAD       CLEAR     34  19  54 E8        30.38R WCI  27
$$

COZ042>045-048>051-090-091-090200-
...NORTHEAST COLORADO...

CITY           SKY/WX    TMP DP  RH WIND       PRES   REMARKS
GREELEY ARPT   CLOUDY    28  19  69 NW5       30.32F WCI  23
AKRON          CLOUDY    36  29  75 NW14      30.28S
BURLINGTON     CLOUDY    34  25  69 NW10      30.28F WCI  26
WRAY           CLOUDY    36  29  75 W13       30.27F
STERLING       CLOUDY    34  32  93 NW5       30.29R WCI  30
HOLYOKE        CLOUDY    36  28  75 NW8       30.27S
FORT MORGAN    CLOUDY    37  28  67 NW14      30.30F
$$

COZ086-089-092>099-090200-
...SOUTHEAST COLORADO...

CITY           SKY/WX    TMP DP  RH WIND       PRES   REMARKS
PUEBLO         CLOUDY    38  25  59 NE6       30.36R
LA JUNTA       CLOUDY    38  24  57 SW10      30.35F
LAMAR          CLOUDY    34  23  64 W8        30.33S WCI  27
SPRINGFIELD      N/A     32  20  61 W9        30.34F WCI  24
$$



USA.gov is the U.S. government's official web portal to all federal, state and local government web resources and services.